Simultaneous Nadir Overpasses (SNOs) Predictions

Prediction of SNOs between AURA and NPP Satellite Orbit:

Table of predicted SNOs for the next 14.0 days since TLE Epoch: 7/29/2023
Index Date (AURA) Time (AURA) Lat,Lon (AURA) SZA (AURA ) Date (NPP) Time (NPP) Lat,Lon (NPP) SZA (NPP ) Distance(km) Time Diff (sec)
1 07/30/2023 04:59:35 -79.84,-174.98 106.22 07/30/2023 04:59:00 -79.84,-174.98 106.19 0.23 35
2 07/30/2023 05:48:55 80.01, -5.97 73.53 07/30/2023 05:49:39 80.00, -6.02 73.50 1.00 44
3 08/01/2023 20:25:15 79.94, 134.40 74.26 08/01/2023 20:25:05 79.95, 134.54 74.24 2.95 10
4 08/01/2023 21:14:38 -80.06, -57.00 105.92 08/01/2023 21:15:47 -80.05, -57.15 105.94 3.07 69
5 08/04/2023 11:01:39 79.73, -86.28 75.24 08/04/2023 11:00:37 79.73, -86.35 75.30 1.35 62
6 08/04/2023 11:50:59 -79.96, 83.16 105.11 08/04/2023 11:51:15 -79.96, 83.12 105.12 0.87 16
7 08/07/2023 02:27:20 -79.84,-136.91 104.23 08/07/2023 02:26:44 -79.84,-136.93 104.20 0.41 36
8 08/07/2023 03:16:40 80.00, 32.03 75.53 08/07/2023 03:17:23 80.00, 31.96 75.51 1.36 43
9 08/09/2023 17:53:00 79.88, 171.99 76.43 08/09/2023 17:52:52 79.87, 171.86 76.46 2.84 8



Historial Predications of SNOs between AURA and NPP
